STARLINK-5803, 56008

Orbit data source: Space-Track

STARLINK-5803, 56008 is a payload satellite owned by SpaceX/Seattle (US) in LEO that was launched on Fri, 24 Mar 2023 UTC via an FALCON 9 launch vehicle from the Air Force Eastern Test Range (AFETR). Payload-class satellites include a variety of spacecraft equipped with specific instruments for various scientific and technological missions. These include communications satellites like Starlink; space stations such as the ISS; scientific satellites like the Hubble; Earth observation satellites from companies like Planet Labs, Umbra, and HawkEye 360; GPS; miniature CubeSats for education and research; and military/defense satellites.

Loading next visibility...
Identifier
56008, 2023-042Y
Orbit
LEO
Country
Flag of USUS
Related business
Manufacturer
SpaceX/Seattle
Mission
Operational Commercial Communications
Bus & Motor
STARLINK, Unknown motor
Mass
305 kg wet, ~290 kg dry
Launch date (UTC)
2023-03-24 (3 years ago)
Launch vehicle
FALCON 9
Launch site
Air Force Eastern Test Range (AFETR)
Object type
Payload
Rocket body
Debris
Shape & HBR
Box + 1 Pan, 10.1 m
Radar Cross Section
11.087 m², Large (>1 m²)

Expand to show TLE details & history
Last TLE update: 2 days ago

TLE from 2 days ago
0 STARLINK-5803
1 56008U 23042Y   26171.42802381 -.00000112  00000-0  54617-5 0  9998
2 56008  43.0011 199.2357 0001361 265.9189  94.1508 15.27577089178573
Epoch: 2026-06-20T10:16Z
TLE epoch observation values (Epoch: 2026-06-20T10:16:21.257Z)
Latitude
0.00006°
Longitude
136.5044°
Altitude
482.901 km
Speed
7.626 km/s
True Right ascension
13h 16m 56s
True Declination
0° 00' 00"
Sunlit
Object was in daylight at epoch
Visualization orbit readout
Latitude
Unknown
Longitude
Unknown
Altitude
Unknown
Speed
Unknown
Apparent Right ascension
Unknown
Apparent Declination
Unknown
Sunlit
N/A
Visualization observer readout
Local Sidereal Time
21:27:09
Azimuth
Unknown
Elevation
Unknown
Doppler factor
Unknown
Orbital elements
Apogee altitude
485.937 km
Perigee altitude
484.069 km
Semi-major axis
6,863.14 km
Eccentricity
0.00014
Inclination
43.0011°
RAAN
199.2357°
Arg. of periapsis
265.9189°
True anomaly
94.16635°
Mean anomaly
94.1508°
Eccentric anomaly
94.15858°
Mean motion
3.81732 °/min
Orbital period
94.31 mins
BSTAR
0.0000054617
Loading maneuver chart data...
Computing Atmospheric mass density...
Loading historical data...
Loading historical data...
Loading historical data...
Loading historical data...
Loading historical data...
Loading historical data...
Loading historical data...

Documentation

Showing up to 5 results
|